Regional Weather Roundup
Issued by NWS

Home | Current Version | Previous Version | Graphics & Text | Print | Product List | Glossary On
Versions: 1 2 3 4 5 6 7 8 9 10 11 12 13 14 15 16 17 18 19 20 21 22 23 24 25 26 27 28 29 30 31 32 33 34 35 36 37 38 39 40 41 42 43 44 45 46 47 48 49 50
000
ASUS45 KCYS 160610
RWRWY

WYOMING REGIONAL WEATHER ROUNDUP
NATIONAL WEATHER SERVICE CHEYENNE WY
1200 AM MDT MON OCT 16 2017

NOTE:  "FAIR" INDICATES FEW OR NO CLOUDS BELOW 12,000 FEET
WITH NO SIGNIFICANT WEATHER AND/OR OBSTRUCTIONS TO VISIBILITY.

WYZ001-160700-
YELLOWSTONE NATIONAL PARK

CITY           SKY/WX    TMP DP  RH WIND       PRES   REMARKS
LK YELLOWSTONE   N/A     24  23  96 CALM      30.46F
6HR MIN TEMP:  24; 6HR MAX TEMP:  42;

W YELLOWSTONE  NOT AVBL

$$
WYZ002>013-054>058-071-098>099-160700-
NORTHERN WYOMING

CITY           SKY/WX    TMP DP  RH WIND       PRES   REMARKS
JACKSON        FAIR      26  23  88 NE3       30.45F
CODY           FAIR      52  24  33 SW5       30.27F
GREYBULL       FAIR      38  27  64 E3        30.26F
6HR MIN TEMP:  36; 6HR MAX TEMP:  56;

WORLAND        FAIR      33  29  85 S5        30.26F WCI  29
6HR MIN TEMP:  32; 6HR MAX TEMP:  55;

SHERIDAN       FAIR      32  26  78 CALM      30.20F
6HR MIN TEMP:  32; 6HR MAX TEMP:  53;

BUFFALO        FAIR      41  20  43 W8        30.24F
6HR MIN TEMP:  39; 6HR MAX TEMP:  53;

GILLETTE       FAIR      39  28  64 SE6       30.23F WCI  35
6HR MIN TEMP:  33; 6HR MAX TEMP:  53;

HULETT         FAIR      46  27  46 SW9       30.24F
NEWCASTLE      FAIR      43  25  49 E7        30.28F

$$
WYZ014>020-022>026-101>103-160700-
CENTRAL WYOMING

CITY           SKY/WX    TMP DP  RH WIND       PRES   REMARKS
BIG PINEY      FAIR      28  20  71 CALM      30.46S
6HR MIN TEMP:  25; 6HR MAX TEMP:  54;

PINEDALE       FAIR      25  21  86 NW6       30.46F WCI  18
DUBOIS         FAIR      36  23  60 NW15      30.38F WCI  26
LANDER         FAIR      41  29  62 W3        30.32F
6HR MIN TEMP:  40; 6HR MAX TEMP:  54;

RIVERTON       FAIR      40  27  59 CALM      30.32F
6HR MIN TEMP:  36; 6HR MAX TEMP:  54;

CASPER         FAIR      38  22  52 W10       30.31F WCI  31
6HR MIN TEMP:  37; 6HR MAX TEMP:  56;

DOUGLAS        FAIR      35  25  66 CALM      30.30F
6HR MIN TEMP:  33; 6HR MAX TEMP:  55;


$$
WYZ021-027>030-104>119-160700-
SOUTHERN WYOMING

CITY           SKY/WX    TMP DP  RH WIND       PRES   REMARKS
EVANSTON       FAIR      45  11  25 SW3       30.45F
6HR MIN TEMP:  43; 6HR MAX TEMP:  58;

KEMMERER       FAIR      30  19  64 CALM      30.46F
FORT BRIDGER   FAIR      40  12  31 W10       30.47F WCI  34
ROCK SPRINGS   FAIR      42   9  25 CALM      30.44F
6HR MIN TEMP:  40; 6HR MAX TEMP:  54;

DIXON          FAIR      31  18  58 SE5       30.50S WCI  26
RAWLINS        FAIR      38  14  37 SW7       30.43F WCI  33
6HR MIN TEMP:  38; 6HR MAX TEMP:  52;

SARATOGA       FAIR      27  18  69 CALM      30.46F
LARAMIE        FAIR      38  15  39 SW12      30.43F WCI  30
6HR MIN TEMP:  33; 6HR MAX TEMP:  52;

CHEYENNE       FAIR      34  23  64 SW12      30.40F WCI  25
6HR MIN TEMP:  34; 6HR MAX TEMP:  53;

TORRINGTON     FAIR      34  25  69 SE7       30.30F WCI  28
6HR MIN TEMP:  31; 6HR MAX TEMP:  58;

PINE BLUFFS    FAIR      34  25  69 MISG      30.39F

$$



USA.gov is the U.S. government's official web portal to all federal, state and local government web resources and services.